Weather History for Port Angeles, WA

Change the Weather History Date:

Monday, July 22, 2013

  Actual Average Record
Temperature  
Mean Temperature 60 °F -  
Max Temperature 66 °F 68 °F 90 °F (2006)
Min Temperature 53 °F 52 °F 45 °F (1965)
Degree Days  
Heating Degree Days 6    
Growing Degree Days 10 (Base 50)    
Moisture  
Dew Point 53 °F    
Average Humidity 89    
Maximum Humidity 100    
Minimum Humidity 68    
Precipitation  
Precipitation 0.00 in - - ()
Sea Level Pressure  
Sea Level Pressure 30.03 in    
Wind  
Wind Speed 7 mph (NW)    
Max Wind Speed 12 mph    
Max Gust Speed -    
Visibility 7 miles    
Events Fog    
Averages and records for this station are not official NWS values.
T = Trace of Precipitation, MM = Missing Value Source: NWS Daily Summary

Daily Weather History Graph

Daily Weather History Graph

Search for Another Location

Airport:

Trip Planner

Search our weather history database for the weather conditions in past years. The results will help you decide how hot, cold, wet, or windy it might be!

Date:

Astronomy

Jul. 22, 2013 Rise Set
Actual Time 5:37 AM PDT 9:02 PM PDT
Civil Twilight 4:59 AM PDT 9:40 PM PDT
Nautical Twilight 4:08 AM PDT 10:30 PM PDT
Astronomical Twilight 3:01 AM PDT 11:36 PM PDT
Moon 8:43 PM PDT 5:46 AM PDT
Length of Visible Light 16h 40m
Length of Day
15h 24m
Full, 100% of the Moon is Illuminated
Jul 22
Full
Jul 29
Last Quarter
Aug 6
New
Aug 14
First Quarter
Aug 20
Full

Hourly Weather History & Observations

Time (PDT) Temp. Dew Point Humidity Pressure Visibility Wind Dir Wind Speed Gust Speed Precip Events Conditions
12:53 AM 55.0 °F 53.1 °F 93% 29.97 in 10.0 mi WNW 11.5 mph - N/A   Overcast
1:53 AM 54.0 °F 53.1 °F 97% 29.97 in 9.0 mi WNW 9.2 mph - N/A   Overcast
2:53 AM 54.0 °F 53.1 °F 97% 29.98 in 6.0 mi WNW 8.1 mph - N/A   Overcast
3:30 AM 54.0 °F 53.1 °F 97% 29.98 in 2.0 mi WNW 9.2 mph - N/A   Overcast
3:53 AM 54.0 °F 53.1 °F 97% 29.99 in 2.0 mi WNW 8.1 mph - N/A   Overcast
4:06 AM 54.0 °F 53.1 °F 97% 29.99 in 2.0 mi WNW 9.2 mph - N/A   Overcast
4:26 AM 54.0 °F 53.1 °F 97% 29.99 in 3.0 mi WNW 8.1 mph - N/A   Overcast
4:53 AM 54.0 °F 53.1 °F 97% 29.99 in 6.0 mi West 6.9 mph - N/A   Overcast
5:51 AM 53.6 °F 53.6 °F 100% 29.99 in 2.5 mi West 4.6 mph - N/A   Overcast
5:53 AM 54.0 °F 53.1 °F 97% 29.99 in 3.0 mi WNW 4.6 mph - N/A   Overcast
6:01 AM 54.0 °F 53.1 °F 97% 29.99 in 2.5 mi WNW 3.5 mph - N/A   Overcast
6:14 AM 54.0 °F 53.1 °F 97% 30.00 in 1.0 mi Calm Calm - N/A   Overcast
6:48 AM 53.6 °F 53.6 °F 100% 30.01 in 3.0 mi Calm Calm - N/A   Overcast
6:53 AM 54.0 °F 53.1 °F 97% 30.01 in 8.0 mi Calm Calm - N/A   Overcast
7:53 AM 55.0 °F 53.1 °F 93% 30.03 in 10.0 mi Calm Calm - N/A   Overcast
8:53 AM 55.9 °F 53.1 °F 90% 30.04 in 10.0 mi NNW 4.6 mph - N/A   Overcast
9:53 AM 57.0 °F 53.1 °F 87% 30.05 in 10.0 mi Calm Calm - N/A   Overcast
10:25 AM 60.1 °F 53.1 °F 78% 30.05 in 10.0 mi NNW 6.9 mph - N/A   Partly Cloudy
10:53 AM 59.0 °F 53.1 °F 81% 30.06 in 10.0 mi North 5.8 mph - N/A   Clear
11:53 AM 60.1 °F 53.1 °F 78% 30.06 in 10.0 mi NNE 5.8 mph - N/A   Clear
12:53 PM 59.0 °F 53.1 °F 81% 30.07 in 10.0 mi North 6.9 mph - N/A   Clear
1:53 PM 63.0 °F 53.1 °F 70% 30.07 in 10.0 mi Variable 5.8 mph - N/A   Clear
2:53 PM 63.0 °F 54.0 °F 72% 30.07 in 10.0 mi Variable 6.9 mph - N/A   Clear
3:53 PM 64.9 °F 55.0 °F 70% 30.06 in 10.0 mi NNW 6.9 mph - N/A   Clear
4:53 PM 66.0 °F 55.0 °F 68% 30.05 in 10.0 mi WNW 6.9 mph - N/A   Clear
5:53 PM 64.0 °F 55.0 °F 73% 30.04 in 10.0 mi NW 8.1 mph - N/A   Clear
6:53 PM 62.1 °F 55.0 °F 78% 30.03 in 10.0 mi NW 5.8 mph - N/A   Clear
7:53 PM 60.1 °F 54.0 °F 80% 30.04 in 10.0 mi NW 4.6 mph - N/A   Clear
8:53 PM 55.9 °F 53.1 °F 90% 30.04 in 10.0 mi WNW 3.5 mph - N/A   Clear
9:49 PM 53.6 °F 51.8 °F 94% 30.05 in 10.0 mi WNW 8.1 mph - N/A   Scattered Clouds
9:53 PM 54.0 °F 52.0 °F 93% 30.05 in 9.0 mi WNW 8.1 mph - N/A   Mostly Cloudy
10:10 PM 54.0 °F 53.1 °F 97% 30.06 in 1.8 mi WNW 8.1 mph - N/A   Overcast
10:25 PM 54.0 °F 53.1 °F 97% 30.06 in 0.8 mi WNW 4.6 mph - N/A   Mist
10:53 PM 54.0 °F 53.1 °F 97% 30.06 in 0.5 mi WNW 8.1 mph - N/A Fog Fog
11:53 PM 53.1 °F 52.0 °F 96% 30.06 in 0.5 mi WNW 6.9 mph - N/A Fog Fog